Regional Weather Roundup
Issued by NWS

Home | Current Version | Previous Version | Text Only | Print | Product List | Glossary On
Versions: 1 2 3 4 5 6 7 8 9 10 11 12 13 14 15 16 17 18 19 20 21 22 23 24 25 26 27 28 29 30 31 32 33 34 35 36 37 38 39 40 41 42 43 44 45 46 47 48 49 50
000
ASUS43 KFSD 021810
RWRSD

WEATHER ROUNDUP FOR SOUTH DAKOTA
NATIONAL WEATHER SERVICE SIOUX FALLS SD
100 PM CDT SUN AUG 02 2015

NOTE: "FAIR" INDICATES FEW OR NO CLOUDS BELOW 12,000 FEET WITH NO
SIGNIFICANT WEATHER AND/OR OBSTRUCTIONS TO VISIBILITY.


SDZ001>005-009-010-012>017-021900-
NORTHWEST AND NORTH CENTRAL SOUTH DAKOTA

CITY           SKY/WX    TMP DP  RH WIND       PRES   REMARKS
BUFFALO          N/A     81  47  30 NE14G21   29.96S
FAITH            N/A     81  50  33 NE18      29.97R
MOBRIDGE       SUNNY     81  56  42 N16G23    29.90F
$$

SDZ012>016-024>037-041>051-057-063-072>074-021900-
SOUTHWEST AND SOUTH CENTRAL SOUTH DAKOTA

CITY           SKY/WX    TMP DP  RH WIND       PRES   REMARKS
RAPID CTY ARPT MOSUNNY   80  55  42 VRB7      30.02R
PIERRE         SUNNY     85  53  33 N16G23    29.89S
CUSTER         MOSUNNY   81  53  37 E13       30.12S
ELLSWORTH AFB  MOSUNNY   80  52  38 E7        30.01S
PHILIP         SUNNY     85  57  38 NE12      29.94S
PINE RIDGE     SUNNY     85  56  37 N8        29.99S
WINNER         FAIR      87  59  38 NE10      29.90S
$$

SDZ004>011-016>023-039-040-021900-
NORTHEAST SOUTH DAKOTA

CITY           SKY/WX    TMP DP  RH WIND       PRES   REMARKS
ABERDEEN       SUNNY     80  58  46 N15       29.88R
WATERTOWN      SUNNY     79  60  52 NW18      29.86R
BROOKINGS      SUNNY     81  63  54 N16       29.85S
SISSETON         N/A     77  60  55 N16       29.82R
$$

SDZ017-020-022-023-036>040-048>070-021900-
SOUTHEAST SOUTH DAKOTA

CITY           SKY/WX    TMP DP  RH WIND       PRES   REMARKS
SIOUX FALLS    PTSUNNY   84  66  54 N12G21    29.82R
HURON          SUNNY     80  62  54 NE16      29.86R
CHAMBERLAIN    SUNNY     82  64  52 NE9       29.89R
MITCHELL       SUNNY     82  67  60 N14       29.86R
YANKTON        SUNNY     86  64  48 N10G16    29.81R
$$

ABBREVIATIONS USED IN REMARKS
   TC - TEMPERATURE IN CELSIUS
  WCI - WIND CHILL INDEX
   HX - HEAT INDEX
  VSB - VISIBILITY



USA.gov is the U.S. government's official web portal to all federal, state and local government web resources and services.